Greenville, AL

10:01 AM CDT on August 24, 2016 (GMT -0500)
Greenville Municipal

Weather History for KPRN - August, 2013

Change the Weather History Date:

Friday, August 16, 2013

  Actual Average Record
Temperature  
Mean Temperature 76 °F -  
Max Temperature 82 °F 91 °F 100 °F (1943)
Min Temperature 69 °F 69 °F 62 °F (1963)
Cooling Degree Days 10    
Growing Degree Days 26 (Base 50)    
Moisture  
Dew Point 69 °F    
Average Humidity 82    
Maximum Humidity 93    
Minimum Humidity 62    
Precipitation  
Precipitation 0.00 in - - ()
Sea Level Pressure  
Sea Level Pressure 30.02 in    
Wind  
Wind Speed 5 mph (NE)    
Max Wind Speed 9 mph    
Max Gust Speed -    
Visibility 10 miles    
Events      
Averages and records for this station are not official NWS values.
T = Trace of Precipitation, MM = Missing Value Source: NWS Daily Summary

Daily Weather History Graph

Daily Weather History Graph

Search for Another Location

Airport or City:

Trip Planner

Search our weather history database for the weather conditions in past years. The results will help you decide how hot, cold, wet, or windy it might be!

Date:

Astronomy

Aug. 16, 2013 Rise Set
Actual Time 6:12 AM CDT 7:28 PM CDT
Civil Twilight 5:46 AM CDT 7:54 PM CDT
Nautical Twilight 5:15 AM CDT 8:24 PM CDT
Astronomical Twilight 4:44 AM CDT 8:56 PM CDT
Moon 3:40 PM CDT (8/16) 1:21 AM CDT (8/16)
Length of Visible Light 14h 07m
Length of Day
13h 16m
Waxing Gibbous, 75% of the Moon is Illuminated
Aug 16
Waxing Gibbous
Aug 20
Full
Aug 28
Last Quarter
Sep 5
New
Sep 12
First Quarter

Hourly Weather History & Observations

Time (CDT) Temp. Heat Index Dew Point Humidity Pressure Visibility Wind Dir Wind Speed Gust Speed Precip Events Conditions
6:56 AM 69.1 °F - 66.9 °F 93% 29.99 in 3.0 mi East 3.5 mph - N/A   Overcast
7:56 AM 70.0 °F - 66.9 °F 90% 30.00 in 10.0 mi NE 4.6 mph - N/A   Overcast
8:56 AM 70.0 °F - 66.9 °F 90% 30.00 in 10.0 mi ENE 4.6 mph - N/A   Overcast
9:56 AM 71.1 °F - 66.9 °F 87% 30.02 in 10.0 mi NE 5.8 mph - N/A   Overcast
10:56 AM 73.0 °F - 68.0 °F 84% 30.03 in 10.0 mi NE 4.6 mph - N/A   Overcast
11:54 AM 75.2 °F - 68.0 °F 78% 30.03 in 10.0 mi NNE 5.8 mph - N/A   Overcast
11:56 AM 75.0 °F - 68.0 °F 79% 30.02 in 10.0 mi NNE 3.5 mph - N/A   Overcast
12:47 PM 77.0 °F - 69.8 °F 78% 30.02 in 10.0 mi North 4.6 mph - N/A   Overcast
12:56 PM 78.1 °F - 69.1 °F 74% 30.01 in 10.0 mi Calm Calm - N/A   Overcast
1:56 PM 80.1 °F 82.9 °F 69.1 °F 69% 29.98 in 10.0 mi NE 6.9 mph - N/A   Mostly Cloudy
2:56 PM 82.0 °F 84.9 °F 68.0 °F 62% 29.96 in 10.0 mi North 6.9 mph - N/A   Mostly Cloudy
3:53 PM 78.8 °F - 68.0 °F 69% 29.98 in 10.0 mi NNE 5.8 mph - N/A   Overcast
3:56 PM 79.0 °F - 68.0 °F 69% 29.97 in 10.0 mi NNE 6.9 mph - N/A   Overcast
4:23 PM 78.8 °F - 69.8 °F 74% 29.98 in 10.0 mi NNE 5.8 mph - N/A   Overcast
4:30 PM 78.8 °F - 69.8 °F 74% 29.98 in 10.0 mi NE 5.8 mph - N/A   Overcast
4:56 PM 79.0 °F - 69.1 °F 72% 29.97 in 10.0 mi NE 9.2 mph - N/A   Overcast
5:56 PM 79.0 °F - 69.1 °F 72% 29.98 in 10.0 mi NE 6.9 mph - N/A   Partly Cloudy
7:12 PM 75.2 °F - 69.8 °F 83% 30.01 in 10.0 mi NE 5.8 mph - N/A   Mostly Cloudy
7:56 PM 73.9 °F - 70.0 °F 87% 30.02 in 10.0 mi ENE 4.6 mph - N/A   Overcast
8:12 PM 73.4 °F - 69.8 °F 88% 30.03 in 10.0 mi ENE 6.9 mph - N/A   Overcast
8:38 PM 73.4 °F - 69.8 °F 88% 30.03 in 10.0 mi NE 5.8 mph - N/A   Scattered Clouds
8:46 PM 73.4 °F - 69.8 °F 88% 30.03 in 10.0 mi ENE 4.6 mph - N/A   Mostly Cloudy
8:50 PM 73.4 °F - 69.8 °F 88% 30.04 in 10.0 mi ENE 3.5 mph - N/A   Mostly Cloudy
9:23 PM 73.4 °F - 69.8 °F 88% 30.05 in 10.0 mi ENE 5.8 mph - N/A   Overcast
9:31 PM 73.4 °F - 69.8 °F 88% 30.05 in 10.0 mi NE 5.8 mph - N/A   Overcast
9:41 PM 73.4 °F - 68.0 °F 83% 30.05 in 10.0 mi ENE 6.9 mph - N/A   Overcast
9:56 PM 73.0 °F - 68.0 °F 84% 30.04 in 10.0 mi East 5.8 mph - N/A   Overcast
10:08 PM 71.6 °F - 68.0 °F 88% 30.05 in 10.0 mi East 5.8 mph - N/A   Overcast
10:48 PM 71.6 °F - 68.0 °F 88% 30.05 in 10.0 mi East 6.9 mph - N/A   Overcast
10:56 PM 72.0 °F - 68.0 °F 87% 30.04 in 10.0 mi East 4.6 mph - N/A   Overcast
11:19 PM 71.6 °F - 68.0 °F 88% 30.05 in 10.0 mi East 6.9 mph - N/A   Overcast
11:56 PM 71.1 °F - 68.0 °F 90% 30.03 in 8.0 mi ENE 5.8 mph - N/A   Overcast